CFBOC EDDG-EDWI

Flight info

Callsign CFBOC
Flight time 1h 7m
Altitude 7000
Route OSNAD1Z OSNAD M170 EXPUH/N0134F060 DCT DP DCT ABDIM
Aircraft BE24/L-SDE3/L

Departure

Time 2026-04-16 09:43
Airport Münster Osnabrück Airport (EDDG)

Arrival

Time 2026-04-16 10:50
Airport JadeWeser Airport (EDWI)
Time Latitude Longitude Altitude Speed Heading
2026-04-16 09:29 52.13154 7.68326 162 ft 0 kts 91°
2026-04-16 09:36 52.13182 7.68358 162 ft 11 kts 341°
2026-04-16 09:36 52.13264 7.68405 162 ft 16 kts 60°
2026-04-16 09:37 52.13305 7.68580 162 ft 17 kts 71°
2026-04-16 09:37 52.13348 7.68775 162 ft 20 kts 69°
2026-04-16 09:37 52.13401 7.68996 162 ft 23 kts 71°
2026-04-16 09:37 52.13455 7.69251 162 ft 25 kts 71°
2026-04-16 09:38 52.13510 7.69518 162 ft 25 kts 72°
2026-04-16 09:38 52.13567 7.69783 162 ft 25 kts 70°
2026-04-16 09:38 52.13634 7.70004 162 ft 20 kts 31°
2026-04-16 09:38 52.13697 7.70029 162 ft 0 kts 346°
2026-04-16 09:41 52.13714 7.70022 162 ft 8 kts 344°
2026-04-16 09:41 52.13765 7.69927 162 ft 16 kts 256°
2026-04-16 09:41 52.13718 7.69695 163 ft 36 kts 251°
2026-04-16 09:41 52.13604 7.69150 165 ft 67 kts 251°
2026-04-16 09:42 52.13434 7.68345 243 ft 80 kts 247°
2026-04-16 09:42 52.13217 7.67355 252 ft 100 kts 253°
2026-04-16 09:42 52.13004 7.66321 498 ft 92 kts 251°
2026-04-16 09:42 52.12801 7.65379 747 ft 84 kts 249°
2026-04-16 09:43 52.12446 7.64706 997 ft 75 kts 212°
2026-04-16 09:43 52.12004 7.64475 1233 ft 59 kts 183°
2026-04-16 09:43 52.11563 7.64413 1351 ft 64 kts 186°
2026-04-16 09:43 52.11134 7.64355 1508 ft 64 kts 186°
2026-04-16 09:44 52.10724 7.64302 1711 ft 60 kts 186°
2026-04-16 09:44 52.10298 7.64250 1883 ft 60 kts 181°
2026-04-16 09:44 52.09841 7.64447 1994 ft 80 kts 150°
2026-04-16 09:44 52.09378 7.65079 2164 ft 94 kts 140°
2026-04-16 09:45 52.08831 7.65843 2230 ft 116 kts 140°
2026-04-16 09:45 52.08173 7.66779 2226 ft 133 kts 139°
2026-04-16 09:45 52.07452 7.67810 2215 ft 142 kts 140°
2026-04-16 09:45 52.06698 7.68850 2264 ft 142 kts 141°
2026-04-16 09:46 52.05931 7.69864 2346 ft 142 kts 142°
2026-04-16 09:46 52.05152 7.70852 2422 ft 142 kts 143°
2026-04-16 09:46 52.04359 7.71820 2491 ft 142 kts 144°
2026-04-16 09:46 52.03599 7.72711 2562 ft 141 kts 145°
2026-04-16 09:47 52.02797 7.73618 2643 ft 141 kts 147°
2026-04-16 09:47 52.02012 7.74495 2708 ft 130 kts 140°
2026-04-16 09:47 52.01752 7.75785 2757 ft 126 kts 73°
2026-04-16 09:47 52.02365 7.76639 2816 ft 119 kts
2026-04-16 09:48 52.03151 7.76417 2883 ft 113 kts 341°
2026-04-16 09:48 52.03909 7.76522 2960 ft 111 kts 12°
2026-04-16 09:48 52.04663 7.76833 3032 ft 111 kts 17°
2026-04-16 09:48 52.05398 7.77231 3111 ft 113 kts 21°
2026-04-16 09:49 52.06124 7.77759 3182 ft 114 kts 23°
2026-04-16 09:49 52.06843 7.78284 3263 ft 113 kts 22°
2026-04-16 09:49 52.07565 7.78827 3336 ft 114 kts 30°
2026-04-16 09:49 52.08032 7.79843 3409 ft 114 kts 68°
2026-04-16 09:50 52.08339 7.81033 3482 ft 114 kts 67°
2026-04-16 09:50 52.08641 7.82222 3560 ft 113 kts 67°
2026-04-16 09:50 52.08928 7.83367 3671 ft 108 kts 68°
2026-04-16 09:50 52.09207 7.84486 3791 ft 105 kts 68°
2026-04-16 09:51 52.09481 7.85588 3912 ft 104 kts 68°
2026-04-16 09:51 52.09748 7.86666 4030 ft 101 kts 68°
2026-04-16 09:51 52.10007 7.87712 4149 ft 99 kts 68°
2026-04-16 09:51 52.10262 7.88742 4267 ft 97 kts 68°
2026-04-16 09:52 52.10512 7.89751 4388 ft 95 kts 68°
2026-04-16 09:52 52.10756 7.90739 4507 ft 93 kts 68°
2026-04-16 09:52 52.10991 7.91691 4621 ft 90 kts 67°
2026-04-16 09:52 52.11223 7.92629 4747 ft 90 kts 68°
2026-04-16 09:53 52.11455 7.93575 4866 ft 89 kts 68°
2026-04-16 09:53 52.11683 7.94497 4985 ft 86 kts 67°
2026-04-16 09:53 52.11905 7.95389 5102 ft 83 kts 68°
2026-04-16 09:53 52.12117 7.96253 5219 ft 81 kts 67°
2026-04-16 09:54 52.12324 7.97092 5335 ft 79 kts 68°
2026-04-16 09:54 52.12524 7.97894 5452 ft 75 kts 67°
2026-04-16 09:54 52.12712 7.98653 5550 ft 70 kts 66°
2026-04-16 09:54 52.12898 7.99413 5599 ft 72 kts 67°
2026-04-16 09:55 52.13083 8.00164 5651 ft 73 kts 67°
2026-04-16 09:55 52.13270 8.00925 5727 ft 72 kts 67°
2026-04-16 09:55 52.13455 8.01678 5822 ft 71 kts 67°
2026-04-16 09:55 52.13643 8.02443 5866 ft 72 kts 67°
2026-04-16 09:56 52.13765 8.02941 5902 ft 73 kts 67°
2026-04-16 09:56 52.14015 8.03953 5982 ft 72 kts 66°
2026-04-16 09:56 52.14202 8.04720 6053 ft 72 kts 67°
2026-04-16 09:56 52.14328 8.05230 6090 ft 74 kts 67°
2026-04-16 09:57 52.14515 8.05992 6159 ft 72 kts 67°
2026-04-16 09:57 52.14703 8.06766 6214 ft 73 kts 67°
2026-04-16 09:57 52.14892 8.07534 6279 ft 74 kts 68°
2026-04-16 09:57 52.15078 8.08294 6349 ft 74 kts 68°
2026-04-16 09:58 52.15186 8.08736 6407 ft 72 kts 67°
2026-04-16 09:58 52.15317 8.09266 6427 ft 74 kts 67°
2026-04-16 09:58 52.15506 8.10039 6488 ft 72 kts 66°
2026-04-16 09:58 52.15695 8.10817 6529 ft 73 kts 66°
2026-04-16 09:59 52.15883 8.11587 6566 ft 75 kts 67°
2026-04-16 09:59 52.16070 8.12349 6621 ft 74 kts 67°
2026-04-16 09:59 52.16260 8.13127 6668 ft 73 kts 68°
2026-04-16 09:59 52.16451 8.13906 6708 ft 74 kts 68°
2026-04-16 10:00 52.16640 8.14678 6752 ft 74 kts 68°
2026-04-16 10:00 52.16830 8.15457 6802 ft 73 kts 67°
2026-04-16 10:00 52.17021 8.16243 6858 ft 74 kts 66°
2026-04-16 10:01 52.17401 8.17802 6973 ft 72 kts 66°
2026-04-16 10:01 52.17592 8.18587 6998 ft 76 kts 67°
2026-04-16 10:01 52.17795 8.19425 6989 ft 85 kts 68°
2026-04-16 10:01 52.18028 8.20391 6968 ft 97 kts 68°
2026-04-16 10:02 52.18284 8.21447 6963 ft 103 kts 68°
2026-04-16 10:02 52.18556 8.22569 6959 ft 109 kts 68°
2026-04-16 10:02 52.18837 8.23724 6960 ft 112 kts 68°
2026-04-16 10:02 52.19127 8.24920 6956 ft 115 kts 68°
2026-04-16 10:03 52.19423 8.26136 6958 ft 116 kts 68°
2026-04-16 10:03 52.19721 8.27366 6955 ft 118 kts 68°
2026-04-16 10:03 52.20080 8.28558 6955 ft 117 kts 47°
2026-04-16 10:03 52.20763 8.29236 6953 ft 115 kts 26°
2026-04-16 10:04 52.21479 8.29842 6955 ft 117 kts 27°
2026-04-16 10:04 52.22201 8.30461 6953 ft 118 kts 27°
2026-04-16 10:04 52.22931 8.31091 6959 ft 119 kts 27°
2026-04-16 10:04 52.23665 8.31727 6955 ft 119 kts 27°
2026-04-16 10:05 52.24398 8.32362 6955 ft 119 kts 27°
2026-04-16 10:05 52.25132 8.33000 6955 ft 119 kts 27°
2026-04-16 10:05 52.25864 8.33633 6955 ft 119 kts 27°
2026-04-16 10:05 52.26591 8.34267 6955 ft 119 kts 27°
2026-04-16 10:06 52.27321 8.34901 6955 ft 119 kts 27°
2026-04-16 10:06 52.28040 8.35526 6955 ft 118 kts 27°
2026-04-16 10:06 52.28769 8.36161 6955 ft 119 kts 27°
2026-04-16 10:06 52.29498 8.36794 6955 ft 119 kts 27°
2026-04-16 10:07 52.30226 8.37429 6954 ft 118 kts 27°
2026-04-16 10:07 52.30951 8.38060 6955 ft 118 kts 27°
2026-04-16 10:07 52.31681 8.38696 6955 ft 119 kts 27°
2026-04-16 10:07 52.32412 8.39332 6955 ft 119 kts 27°
2026-04-16 10:08 52.33139 8.39967 6955 ft 118 kts 27°
2026-04-16 10:08 52.33869 8.40604 6955 ft 119 kts 27°
2026-04-16 10:08 52.34603 8.41245 6956 ft 120 kts 27°
2026-04-16 10:08 52.35339 8.41887 6957 ft 120 kts 27°
2026-04-16 10:09 52.36078 8.42530 6954 ft 120 kts 26°
2026-04-16 10:09 52.36868 8.42821 6949 ft 117 kts
2026-04-16 10:09 52.37678 8.42895 6952 ft 117 kts
2026-04-16 10:09 52.38491 8.42924 6949 ft 116 kts 354°
2026-04-16 10:10 52.39287 8.42798 6950 ft 117 kts 354°
2026-04-16 10:10 52.40103 8.42672 6950 ft 118 kts 354°
2026-04-16 10:10 52.40923 8.42543 6953 ft 119 kts 354°
2026-04-16 10:10 52.41747 8.42415 6952 ft 118 kts 354°
2026-04-16 10:11 52.42565 8.42288 6951 ft 118 kts 354°
2026-04-16 10:11 52.43379 8.42160 6955 ft 118 kts 354°
2026-04-16 10:11 52.44196 8.42033 6951 ft 118 kts 354°
2026-04-16 10:11 52.45010 8.41906 6950 ft 117 kts 354°
2026-04-16 10:12 52.45823 8.41779 6951 ft 118 kts 354°
2026-04-16 10:12 52.46637 8.41651 6953 ft 119 kts 354°
2026-04-16 10:12 52.47465 8.41521 6954 ft 119 kts 354°
2026-04-16 10:12 52.48291 8.41392 6954 ft 119 kts 354°
2026-04-16 10:13 52.49111 8.41264 6952 ft 118 kts 354°
2026-04-16 10:13 52.49928 8.41137 6952 ft 118 kts 354°
2026-04-16 10:13 52.50743 8.41009 6951 ft 117 kts 354°
2026-04-16 10:13 52.51554 8.40882 6950 ft 117 kts 354°
2026-04-16 10:14 52.52365 8.40755 6952 ft 117 kts 354°
2026-04-16 10:14 52.53182 8.40626 6950 ft 118 kts 354°
2026-04-16 10:14 52.53997 8.40499 6950 ft 117 kts 354°
2026-04-16 10:14 52.54810 8.40372 6952 ft 117 kts 353°
2026-04-16 10:15 52.55625 8.40246 6953 ft 118 kts 354°
2026-04-16 10:15 52.56451 8.40116 6954 ft 120 kts 354°
2026-04-16 10:15 52.57276 8.39987 6955 ft 119 kts 354°
2026-04-16 10:15 52.58100 8.39857 6954 ft 119 kts 354°
2026-04-16 10:16 52.58913 8.39730 6952 ft 119 kts 353°
2026-04-16 10:16 52.59732 8.39601 6952 ft 118 kts 354°
2026-04-16 10:16 52.60557 8.39472 6951 ft 117 kts 354°
2026-04-16 10:16 52.61359 8.39346 6950 ft 117 kts 354°
2026-04-16 10:17 52.62148 8.39224 6951 ft 118 kts 354°
2026-04-16 10:17 52.62967 8.39096 6953 ft 119 kts 354°
2026-04-16 10:17 52.63793 8.38966 6951 ft 119 kts 354°
2026-04-16 10:17 52.64616 8.38836 6952 ft 118 kts 353°
2026-04-16 10:18 52.65435 8.38708 6954 ft 119 kts 354°
2026-04-16 10:18 52.66258 8.38579 6954 ft 119 kts 354°
2026-04-16 10:18 52.67085 8.38448 6953 ft 119 kts 354°
2026-04-16 10:18 52.67905 8.38319 6953 ft 118 kts 354°
2026-04-16 10:19 52.68725 8.38191 6952 ft 119 kts 354°
2026-04-16 10:19 52.69549 8.38060 6951 ft 119 kts 354°
2026-04-16 10:19 52.70367 8.37931 6954 ft 118 kts 354°
2026-04-16 10:19 52.71189 8.37801 6951 ft 119 kts 354°
2026-04-16 10:20 52.72010 8.37672 6953 ft 118 kts 354°
2026-04-16 10:20 52.72831 8.37541 6951 ft 118 kts 354°
2026-04-16 10:20 52.73650 8.37413 6952 ft 118 kts 354°
2026-04-16 10:20 52.74469 8.37284 6950 ft 118 kts 354°
2026-04-16 10:21 52.75278 8.37157 6950 ft 118 kts 354°
2026-04-16 10:21 52.76092 8.37029 6949 ft 117 kts 354°
2026-04-16 10:21 52.76906 8.36902 6949 ft 117 kts 354°
2026-04-16 10:21 52.77713 8.36758 6947 ft 116 kts 348°
2026-04-16 10:22 52.78486 8.36395 6944 ft 115 kts 338°
2026-04-16 10:22 52.79230 8.35947 6943 ft 114 kts 339°
2026-04-16 10:22 52.79975 8.35486 6942 ft 115 kts 339°
2026-04-16 10:22 52.80729 8.35020 6946 ft 117 kts 339°
2026-04-16 10:23 52.81484 8.34553 6946 ft 117 kts 339°
2026-04-16 10:23 52.82242 8.34085 6949 ft 117 kts 339°
2026-04-16 10:23 52.82966 8.33637 6950 ft 117 kts 339°
2026-04-16 10:23 52.83732 8.33162 6948 ft 117 kts 339°
2026-04-16 10:24 52.84494 8.32690 6948 ft 117 kts 339°
2026-04-16 10:24 52.85256 8.32218 6948 ft 117 kts 339°
2026-04-16 10:24 52.86020 8.31746 6950 ft 118 kts 339°
2026-04-16 10:24 52.86789 8.31269 6951 ft 118 kts 339°
2026-04-16 10:25 52.87562 8.30790 6950 ft 119 kts 339°
2026-04-16 10:25 52.88334 8.30311 6952 ft 118 kts 339°
2026-04-16 10:25 52.89106 8.29833 6952 ft 119 kts 339°
2026-04-16 10:25 52.89882 8.29352 6954 ft 120 kts 339°
2026-04-16 10:26 52.90661 8.28867 6951 ft 119 kts 339°
2026-04-16 10:26 52.91432 8.28389 6951 ft 118 kts 339°
2026-04-16 10:26 52.92198 8.27914 6949 ft 117 kts 339°
2026-04-16 10:26 52.92958 8.27442 6949 ft 115 kts 339°
2026-04-16 10:27 52.93700 8.26983 6943 ft 114 kts 339°
2026-04-16 10:27 52.94433 8.26527 6939 ft 112 kts 339°
2026-04-16 10:27 52.95157 8.26078 6938 ft 110 kts 339°
2026-04-16 10:27 52.95869 8.25638 6940 ft 110 kts 339°
2026-04-16 10:28 52.96583 8.25195 6943 ft 109 kts 339°
2026-04-16 10:28 52.97302 8.24750 6925 ft 110 kts 339°
2026-04-16 10:28 52.98090 8.24260 6660 ft 129 kts 339°
2026-04-16 10:28 52.98957 8.23718 6400 ft 135 kts 339°
2026-04-16 10:29 52.99819 8.23176 6137 ft 134 kts 339°
2026-04-16 10:29 53.00699 8.22622 5823 ft 137 kts 339°
2026-04-16 10:29 53.01599 8.22055 5484 ft 139 kts 339°
2026-04-16 10:29 53.02510 8.21481 5131 ft 138 kts 339°
2026-04-16 10:30 53.03407 8.20915 4784 ft 138 kts 339°
2026-04-16 10:30 53.04300 8.20352 4436 ft 137 kts 339°
2026-04-16 10:30 53.05188 8.19792 4091 ft 137 kts 339°
2026-04-16 10:30 53.06068 8.19237 3737 ft 134 kts 339°
2026-04-16 10:31 53.06933 8.18690 3387 ft 133 kts 339°
2026-04-16 10:31 53.07783 8.18155 3042 ft 132 kts 339°
2026-04-16 10:31 53.08612 8.17634 2947 ft 116 kts 339°
2026-04-16 10:31 53.09312 8.17198 2933 ft 102 kts 338°
2026-04-16 10:32 53.09961 8.16795 2935 ft 98 kts 338°
2026-04-16 10:32 53.10596 8.16403 2939 ft 97 kts 339°
2026-04-16 10:32 53.11222 8.16017 2940 ft 95 kts 339°
2026-04-16 10:32 53.11846 8.15632 2946 ft 97 kts 339°
2026-04-16 10:33 53.12487 8.15235 2946 ft 100 kts 339°
2026-04-16 10:33 53.13147 8.14824 2951 ft 102 kts 339°
2026-04-16 10:33 53.13812 8.14411 2948 ft 100 kts 339°
2026-04-16 10:33 53.14461 8.14008 2954 ft 99 kts 339°
2026-04-16 10:34 53.15105 8.13608 2952 ft 98 kts 338°
2026-04-16 10:34 53.15757 8.13207 2940 ft 100 kts 339°
2026-04-16 10:34 53.16398 8.12809 2945 ft 97 kts 339°
2026-04-16 10:34 53.17026 8.12418 2948 ft 97 kts 339°
2026-04-16 10:35 53.17670 8.12018 2942 ft 99 kts 338°
2026-04-16 10:35 53.18312 8.11621 2945 ft 98 kts 339°
2026-04-16 10:35 53.18949 8.11223 2946 ft 98 kts 338°
2026-04-16 10:35 53.19594 8.10825 2946 ft 99 kts 339°
2026-04-16 10:36 53.20245 8.10420 2948 ft 101 kts 338°
2026-04-16 10:36 53.20892 8.10019 2945 ft 102 kts 339°
2026-04-16 10:36 53.21559 8.09604 2948 ft 101 kts 338°
2026-04-16 10:36 53.22204 8.09200 2949 ft 98 kts 336°
2026-04-16 10:37 53.22833 8.08807 2939 ft 96 kts 339°
2026-04-16 10:37 53.23454 8.08421 2938 ft 94 kts 339°
2026-04-16 10:37 53.24062 8.08045 2940 ft 94 kts 339°
2026-04-16 10:37 53.24666 8.07669 2935 ft 88 kts 339°
2026-04-16 10:38 53.25244 8.07312 2941 ft 89 kts 339°
2026-04-16 10:38 53.25834 8.06949 2944 ft 92 kts 339°
2026-04-16 10:38 53.26441 8.06571 2949 ft 95 kts 338°
2026-04-16 10:38 53.27068 8.06180 2957 ft 97 kts 338°
2026-04-16 10:39 53.27711 8.05782 2948 ft 98 kts 338°
2026-04-16 10:39 53.28353 8.05385 2953 ft 100 kts 339°
2026-04-16 10:39 53.29017 8.04968 2951 ft 102 kts 339°
2026-04-16 10:39 53.29676 8.04555 2953 ft 100 kts 339°
2026-04-16 10:40 53.30116 8.04281 2954 ft 99 kts 338°
2026-04-16 10:40 53.30976 8.03745 2950 ft 99 kts 339°
2026-04-16 10:40 53.31624 8.03340 2951 ft 99 kts 338°
2026-04-16 10:40 53.32266 8.02939 2947 ft 97 kts 339°
2026-04-16 10:41 53.32850 8.02578 2940 ft 82 kts 338°
2026-04-16 10:41 53.33357 8.02266 2938 ft 76 kts 338°
2026-04-16 10:41 53.33683 8.02066 2933 ft 70 kts 339°
2026-04-16 10:41 53.34129 8.01799 2907 ft 69 kts 339°
2026-04-16 10:42 53.34578 8.01531 2946 ft 69 kts 339°
2026-04-16 10:42 53.35032 8.01264 2967 ft 70 kts 338°
2026-04-16 10:42 53.35493 8.00980 2959 ft 72 kts 339°
2026-04-16 10:42 53.35955 8.00704 2958 ft 71 kts 338°
2026-04-16 10:43 53.36414 8.00426 2953 ft 71 kts 338°
2026-04-16 10:43 53.36876 8.00148 2957 ft 71 kts 338°
2026-04-16 10:43 53.37333 7.99874 2952 ft 69 kts 338°
2026-04-16 10:43 53.37780 7.99605 2951 ft 68 kts 338°
2026-04-16 10:44 53.38231 7.99337 2951 ft 69 kts 339°
2026-04-16 10:44 53.38686 7.99064 2953 ft 70 kts 339°
2026-04-16 10:44 53.39150 7.98786 2954 ft 71 kts 339°
2026-04-16 10:44 53.39621 7.98502 2960 ft 72 kts 339°
2026-04-16 10:45 53.40097 7.98214 2957 ft 73 kts 339°
2026-04-16 10:45 53.40601 7.97970 2922 ft 78 kts 352°
2026-04-16 10:45 53.41153 7.97981 2871 ft 83 kts
2026-04-16 10:45 53.41493 7.98087 2801 ft 85 kts 12°
2026-04-16 10:46 53.41953 7.98338 2702 ft 85 kts 22°
2026-04-16 10:46 53.42482 7.98792 2557 ft 86 kts 29°
2026-04-16 10:46 53.43014 7.99280 2382 ft 90 kts 27°
2026-04-16 10:46 53.43560 7.99849 2222 ft 91 kts 33°
2026-04-16 10:47 53.44096 8.00427 2064 ft 90 kts 31°
2026-04-16 10:47 53.44133 8.00464 2057 ft 90 kts 30°
2026-04-16 10:47 53.44643 8.00995 1926 ft 85 kts 31°
2026-04-16 10:47 53.45138 8.01521 1774 ft 84 kts 30°
2026-04-16 10:48 53.45653 8.02026 1563 ft 88 kts 26°
2026-04-16 10:48 53.46195 8.02476 1369 ft 87 kts 24°
2026-04-16 10:48 53.46745 8.02885 1187 ft 86 kts 22°
2026-04-16 10:48 53.47292 8.03289 1015 ft 86 kts 22°
2026-04-16 10:49 53.47834 8.03683 843 ft 85 kts 20°
2026-04-16 10:49 53.48387 8.04029 653 ft 83 kts 20°
2026-04-16 10:49 53.48914 8.04367 433 ft 79 kts 19°
2026-04-16 10:49 53.49414 8.04690 238 ft 76 kts 19°
2026-04-16 10:50 53.49893 8.05012 59 ft 70 kts 20°
2026-04-16 10:50 53.50274 8.05265 23 ft 44 kts 21°
2026-04-16 10:50 53.50528 8.05438 23 ft 33 kts 21°
2026-04-16 10:50 53.50646 8.05459 22 ft 10 kts 292°
2026-04-16 10:51 53.50648 8.05341 21 ft 12 kts 270°
2026-04-16 10:51 53.50670 8.05220 21 ft 10 kts 304°
2026-04-16 10:51 53.50666 8.05183 21 ft 2 kts 180°
2026-04-16 10:51 53.50660 8.05184 21 ft 0 kts 176°